Location: Liscomb Game Sanctuary
(45.1633°N, 62.5575°W)
Time: 16:44:40
(UTC-03:00)

Daily predictions for brighter satellites

Satellite Brightness Start Highest point End
(mag) Time Altitude Azimuth Time Altitude Azimuth Time Altitude Azimuth
Meteor 1-11 Rocket 3.9 20:26:47 10° S 20:32:27 58° E 20:38:02 10° NNE
Cosmos 839 Rocket 4.2 20:27:08 10° SW 20:33:19 83° WNW 20:39:45 10° NNE
SeaSat 1 3.3 20:37:27 10° NE 20:41:42 28° ESE 20:45:55 10° SSE
Meteor 1-23 Rocket 4.5 20:36:35 10° N 20:42:00 50° ENE 20:47:25 10° SSE
Okean 2 Rocket 4.4 20:37:49 10° SSW 20:42:10 47° WNW 20:46:34 10° N
Cosmos 2360 Rocket 2.8 20:37:54 10° SSE 20:42:55 35° ESE 20:47:58 10° NE
Cosmos 1980 Rocket 3.9 20:38:57 10° WSW 20:44:08 38° NW 20:49:21 10° NNE
Cosmos 1850 Rocket 4.2 20:41:43 10° NNW 20:47:05 78° WSW 20:52:20 10° SSE
Cosmos 1420 Rocket 4.3 20:42:01 10° SSW 20:47:11 73° WNW 20:52:24 10° NNE
Cosmos 1655 Rocket 4.4 20:42:06 10° SSW 20:48:24 73° W 20:54:47 10° N
Okean 2 4.4 20:46:15 10° NNE 20:49:49 28° ENE 20:53:12 11° SE
Abrixas rocket 2.8 20:48:35 10° WNW 20:51:49 51° N 20:54:56 11° E
COSMOS 2428 4.0 20:47:58 10° SE 20:51:49 19° E 20:55:42 10° ENE
NOSS 2-3 (C) 3.9 20:51:21 10° SW 20:56:06 87° SE 21:01:44 10° NE
USA 215 4.4 20:50:19 10° NE 20:56:26 44° NNW 21:02:34 10° W
Cosmos 883 Rocket 4.5 20:52:41 10° N 20:58:47 64° E 21:04:54 10° SSE
Cosmos 220 Rocket 4.0 20:56:17 10° NNW 21:00:36 84° ENE 21:04:58 10° SSE
Resurs 1-3 4.1 20:57:25 10° S 21:01:45 62° W 21:06:07 10° NNW
Cosmos 1607 4.3 20:56:52 10° NW 21:03:19 73° WSW 21:09:45 10° SSE
EXPRESS MD2 3.2 21:00:48 10° WSW 21:03:24 65° NNW 21:07:59 10° ENE
Meteor 1-5 Rocket 4.1 20:59:21 10° S 21:04:33 62° E 21:09:48 10° NNE
Cosmos 2333 Rocket 4.0 21:05:16 11° E 21:05:16 11° E 21:06:25 10° E
USA 238 DEB 3.9 21:00:31 10° NW 21:07:35 67° NE 21:13:37 15° SE
USA 238 3.9 21:00:37 10° NW 21:07:42 67° NE 21:13:42 15° SE
Cosmos 1025 Rocket 3.1 21:05:43 10° N 21:09:55 54° ENE 21:13:42 12° SSE
CZ-4B DEB 3.6 21:10:53 21° ESE 21:11:57 28° ENE 21:14:28 10° N
Meteor 2-4 Rocket 4.1 21:08:08 10° NNW 21:13:41 67° W 21:19:21 10° S
Cosmos 1300 Rocket 3.7 21:09:31 10° SSW 21:13:48 74° W 21:18:08 10° N
Cosmos 1536 3.2 21:12:01 10° SSW 21:16:04 69° W 21:20:08 10° N
Okean 1 Rocket 3.0 21:12:24 10° S 21:16:45 80° E 21:21:10 10° N
ATLAS 3B R/B 2.6 21:10:38 10° NW 21:17:27 83° NE 21:22:42 17° SE
Spot 2 Rocket 4.4 21:12:36 10° S 21:17:33 51° W 21:22:31 10° NNW
USA 186 3.6 21:16:47 10° SSW 21:19:52 33° W 21:22:57 10° NNW
Cosmos 1939 Rocket 2.9 21:16:12 10° S 21:20:09 76° WSW 21:24:05 10° NNW
Tiangong 1 3.3 21:25:08 10° SW 21:26:13 12° SSW 21:27:02 11° SSW
Cosmos 1238 Rocket 4.3 21:20:13 10° N 21:26:43 49° ENE 21:30:58 19° SE
Cosmos 1818 4.1 21:22:56 10° S 21:27:47 34° ESE 21:32:39 10° NE
Helios 1A 2.9 21:24:28 15° SSE 21:27:57 81° ENE 21:32:14 10° NNW
SL-8 R/B 3.7 21:23:41 10° WNW 21:28:27 72° SSW 21:31:15 25° SE
ERS-1 Rocket 3.2 21:26:57 20° SE 21:30:12 52° ENE 21:35:05 10° N
Molniya-1 3.8 21:31:01 10° NNW 21:33:42 59° NE 21:34:56 34° ESE
ARGOS 3.6 21:31:00 22° SE 21:33:58 43° ENE 21:39:02 10° N
Okean 1-7 Rocket 3.6 21:31:11 10° N 21:35:43 84° W 21:39:31 15° S
Cosmos 2266 Rocket 4.3 21:29:57 10° SSW 21:35:57 68° W 21:42:00 10° N
YAOGAN 6 2.9 21:35:41 15° S 21:38:27 61° W 21:41:56 10° NNW
Aureole 3 Rocket 4.4 21:32:47 10° N 21:41:01 60° ENE 21:44:57 23° SSE
Resurs 01 Rocket 4.0 21:39:22 10° SW 21:42:51 22° W 21:46:22 10° NW
NOSS 3-2 (C) 4.3 21:37:10 10° NNW 21:44:23 55° NE 21:49:20 24° ESE
Meteor 1-29 2.8 21:42:24 10° NNE 21:45:49 64° ESE 21:47:01 36° S
Cosmos 2263 Rocket 3.8 21:40:58 10° NW 21:45:54 31° WSW 21:50:48 10° SSW
Envisat 4.5 21:42:30 10° SSW 21:47:07 35° W 21:51:46 10° NNW
Cosmos 2315 Rocket 4.2 21:42:35 10° NNW 21:48:50 74° W 21:55:06 10° S
Cosmos 1844 Rocket 2.7 21:46:42 10° NNW 21:52:25 71° ENE 21:55:09 31° SE
Cosmos 1743 3.8 21:54:19 29° ENE 21:54:19 29° ENE 21:57:04 10° NNE
SPOT 5 3.2 21:52:36 34° ESE 21:54:09 47° ENE 21:58:32 10° N
Cosmos 2278 Rocket 3.2 21:49:04 10° N 21:54:11 33° NE 21:56:20 25° E
Cosmos 2322 Rocket 4.2 21:50:45 10° WSW 21:55:45 31° NW 22:00:47 10° N
USA 245 3.8 21:54:27 37° SE 21:55:50 52° ENE 21:59:40 10° N
Lacrosse 5 2.7 21:52:19 10° WSW 21:57:17 52° NNW 22:02:16 10° NE
MetOp-B 4.1 21:56:23 29° SSE 21:59:15 81° ENE 22:04:38 10° NNW
Cosmos 1626 Rocket 4.4 21:58:47 10° N 22:02:40 32° ENE 22:02:49 32° ENE
ATLAS 2AS CENTAUR R/B 3.6 21:55:11 10° SW 22:02:55 62° NW 22:11:02 10° NE
Helios 1B rocket 2.8 21:59:52 10° N 22:03:56 63° WNW 22:07:59 10° SSW
CENTAUR R/B 3.9 21:57:24 10° NNW 22:04:25 38° NE 22:09:26 20° E
Cosmos 2237 4.2 22:01:21 10° SSW 22:07:03 82° WNW 22:12:48 10° NNE
Cosmos 1892 Rocket 3.5 22:02:40 10° N 22:07:07 82° W 22:08:44 38° S
H-2A R/B 2.1 22:06:16 41° ESE 22:07:41 55° ENE 22:12:31 10° N
Cosmos 1745 Rocket 4.0 22:06:16 32° SSE 22:08:54 55° E 22:14:55 10° NNE
Cosmos 1302 Rocket 3.9 22:03:49 10° SSW 22:09:06 89° WNW 22:14:25 10° NNE
Cosmos 2219 Rocket 2.4 22:08:26 36° SSE 22:10:13 48° ESE 22:15:38 10° NE
Landsat 7 4.5 22:10:03 35° E 22:10:42 37° ENE 22:15:05 10° N
Cosmos 1486 Rocket 4.2 22:08:13 10° NNW 22:13:25 66° WSW 22:15:43 33° S
NOSS 3-4 (A) 3.7 22:09:42 21° S 22:13:36 46° ESE 22:19:42 10° NE
NOSS 3-4 (C) 3.7 22:10:15 24° S 22:13:42 45° ESE 22:19:48 10° NE
SeaSat 1 3.6 22:14:39 10° NNE 22:19:21 45° NW 22:24:01 10° SW
Cosmos 1544 Rocket 3.6 22:20:13 41° SSW 22:21:46 83° W 22:26:15 10° N
Cosmos 1500 4.3 22:19:38 19° SW 22:22:05 44° WNW 22:25:50 10° N
Terra 2.5 22:25:53 37° ENE 22:26:02 37° ENE 22:30:25 10° N
SL-16 R/B 4.4 22:29:48 10° ENE 22:29:48 10° ENE 22:29:58 10° ENE
Cosmos 2360 Rocket 3.6 22:21:35 10° SW 22:26:51 39° NW 22:32:07 10° NNE
Cosmos 1386 Rocket 4.5 22:26:38 44° SSE 22:28:29 62° E 22:34:43 10° NNE
Cosmos 405 4.2 22:27:09 28° SW 22:28:31 41° WNW 22:31:57 10° N
Abrixas rocket 3.5 22:25:21 10° WNW 22:27:31 35° W 22:27:31 35° W
Aureole 2 Rocket 4.2 22:31:50 23° NNE 22:31:50 23° NNE 22:33:09 10° NNE
Cosmos 1455 Rocket 3.2 22:32:44 47° SSW 22:33:55 70° W 22:38:23 10° N
Cosmos 1975 3.8 22:33:35 30° SW 22:35:06 45° WNW 22:38:57 10° N
COSMOS 2428 2.9 22:29:46 10° SW 22:35:28 70° WNW 22:41:13 10° NNE
Cosmos 1844 3.8 22:31:38 10° NNW 22:37:18 69° WSW 22:38:50 48° S
GP-B 3.6 22:35:14 10° NNE 22:38:51 46° NE 22:38:51 46° NE
Cosmos 724 4.5 22:40:10 10° NW 22:45:59 62° WSW 22:47:10 50° SSW
Cosmos 2333 Rocket 2.0 22:47:12 60° S 22:48:13 78° ESE 22:53:53 10° NNE
Cosmos 1354 Rocket 4.4 22:47:38 10° NNW 22:52:52 58° WSW 22:53:45 51° SW
ATLAS CENTAUR R/B 4.5 22:37:27 10° WNW 22:53:25 46° N 22:57:27 22° ENE
NOSS 3-2 (A) 4.3 22:47:42 10° NW 22:55:03 58° WSW 22:57:47 41° S
Nadezhda 1 Rocket 4.2 22:49:46 10° NNW 22:56:02 68° W 22:58:07 43° SSW
Cosmos 2237 Rocket 2.2 23:00:25 61° ENE 23:00:25 61° ENE 23:05:24 10° NNE
Cosmos 1437 Rocket 3.8 23:01:26 42° WNW 23:01:26 42° WNW 23:05:08 10° N
Nimbus 7 Rocket 4.4 22:59:27 10° NNE 23:05:21 80° WNW 23:06:50 53° SSW
CARTOSAT-1 4.1 23:07:30 58° NNW 23:07:30 58° NNW 23:11:01 10° NNW
Cosmos 1980 3.5 23:06:58 81° ESE 23:06:58 81° ESE 23:12:36 10° NNE
Cosmos 1666 4.0 23:07:56 40° NW 23:07:56 40° NW 23:10:56 10° N
ATLAS 3B R/B 4.4 23:02:39 10° WNW 23:07:16 20° WSW 23:09:58 16° SW
DMSP B5D2-2 4.0 23:02:14 10° NNE 23:07:31 84° WNW 23:07:47 80° SW
Cosmos 972 Rocket 4.2 23:08:17 71° E 23:08:17 71° E 23:14:11 10° NNE
SPOT 1/Viking Rocket 4.2 23:08:49 43° SW 23:09:35 46° W 23:14:37 10° NNW
Meteor 1-15 Rocket 4.5 23:10:57 57° ENE 23:10:57 57° ENE 23:16:16 10° NNE
Cosmos 1709 Rocket 3.8 23:15:59 76° S 23:16:31 87° E 23:22:49 10° N
H-2A R/B 3.1 23:20:29 43° N 23:20:29 43° N 23:23:37 10° N
Cosmos 2181 Rocket 3.9 23:14:13 10° N 23:20:41 84° E 23:21:06 78° SE
USA 81 4.1 23:18:15 10° N 23:23:11 75° NW 23:23:11 75° NW
BREEZE-M DEB (TANK) 4.2 23:07:25 10° WSW 23:26:05 74° NNW 23:28:45 31° ENE
ATLAS CENTAUR R/B 3.3 23:22:48 10° NNW 23:24:36 24° N 23:24:36 24° N
Cosmos 2297 3.8 23:22:22 10° NNW 23:27:42 69° NE 23:27:42 69° NE
COSMOS 2455 2.9 23:28:32 10° NNW 23:34:25 67° NE 23:34:25 67° NE
CZ-2C R/B 4.2 23:36:21 31° NE 23:36:21 31° NE 23:39:36 10° N
Cosmos 2278 Rocket 2.9 23:33:02 10° NW 23:38:10 44° W 23:38:10 44° W
NOSS 0 Rocket 4.4 23:38:09 39° WSW 23:40:17 58° WNW 23:46:28 10° NNE
Lacrosse 5 4.1 23:37:10 10° WNW 23:41:13 23° N 23:45:17 10° NE
CZ-2C R/B 4.1 23:42:20 10° NNE 23:45:17 27° NE 23:45:17 27° NE
H-2A R/B 3.9 23:46:54 19° W 23:47:25 19° W 23:50:58 10° NW
Cosmos 2219 Rocket 3.8 23:50:02 13° WSW 23:54:22 30° NW 23:59:20 10° N
